Lid_Strength_Index
1 2 3 4 9 10 12 11 9 10 9 8 8 8 8 8 8 9 3 0 0 -0 -1 -1 -1 -1 -2 -2 -2 -1 -1 -1 -1 -1 -1 -1 -1 -1 -1 -1 -1 -1 -1 -2 -2 -1 -1 -1 -1
3 3 4 7 11 14 14 11 10 9 8 8 8 8 8 8 6 5 3 1 -0 -0 -1 -1 -1 -1 -1 -1 -1 -2 -1 -2 -1 -2 -2 -1 -1 -1 -1 -1 -1 -1 -1 -1 -1 -1 -1 -1 -2
3 4 6 10 13 14 14 10 10 9 9 8 8 7 7 7 6 4 2 0 -0 -0 -1 -0 -1 -1 -2 -1 -1 -2 -2 -2 -2 -2 -2 -1 -1 -1 -1 -1 -1 -1 -1 -1 -1 -1 -1 -1 -1
5 6 9 10 12 11 11 9 10 9 9 9 8 9 8 6 5 4 2 1 0 -0 0 -0 -1 -1 -2 -1 -2 -2 -2 -2 -2 -2 -2 -1 -1 -1 -1 -1 -1 -1 -2 -2 -1 0 0 0 0
7 9 12 13 13 11 10 9 9 9 9 9 8 9 8 6 6 4 1 0 0 1 0 -0 -1 -1 -1 -1 -1 -2 -2 -2 -2 -2 -1 -1 -1 -2 -2 -2 -2 -2 -1 -0 0 0 0 1 1
9 9 12 14 13 11 10 9 9 9 9 9 9 9 8 7 6 5 1 1 1 1 1 -0 -0 -0 -1 -1 -2 -2 -2 -2 -2 -2 -1 -1 -2 -2 -1 -1 -1 -0 -0 0 -0 0 1 1 2
10 11 13 13 13 12 10 10 10 9 9 9 8 8 7 7 7 4 2 2 2 2 2 0 -1 -0 -0 -1 -1 -1 -2 -1 -2 -1 -2 -2 -2 -1 -0 -0 -0 -0 -0 0 1 1 2 2 3
9 10 12 13 13 12 10 10 9 9 9 8 8 9 8 6 6 4 3 3 2 2 2 1 0 0 -0 0 1 -0 -1 -1 -2 -1 -1 -1 -1 -1 -0 -0 -0 0 1 1 2 2 3 3 4
9 12 14 12 13 11 10 10 9 9 9 9 8 8 7 8 6 5 4 4 4 3 2 2 1 1 0 1 0 -0 -0 -1 -1 -1 -0 1 1 1 2 2 0 1 2 2 3 3 4 5 6
10 13 13 11 12 11 10 10 9 9 9 9 9 8 8 8 7 6 5 4 4 4 3 2 2 2 2 2 1 0 0 1 1 1 2 4 4 4 4 3 1 1 2 3 4 5 7 10 10
11 12 11 11 11 10 10 10 9 10 10 9 9 8 9 9 8 6 5 4 4 3 3 3 3 3 3 2 3 2 2 2 3 3 5 5 6 5 5 4 5 6 6 7 8 10 11 11 11
12 10 11 10 10 10 10 10 10 10 7 7 8 8 8 9 9 8 6 5 5 5 4 4 4 3 3 3 3 3 3 4 4 5 6 7 7 6 7 7 8 8 9 10 11 11 11 11 11
12 11 10 10 11 10 10 10 10 11 8 8 9 9 9 9 9 8 7 6 5 6 5 4 4 4 4 4 3 4 4 4 5 6 7 8 8 8 8 8 10 11 11 11 11 12 12 12 12
12 11 11 11 11 11 11 10 11 10 8 9 10 9 9 10 9 9 9 8 7 6 5 5 5 4 4 4 4 4 4 5 6 7 8 9 8 8 9 10 11 12 11 12 12 12 12 12 12
12 13 13 13 12 12 12 13 13 9 10 10 10 10 10 10 10 9 8 8 8 7 6 6 5 5 5 5 5 4 5 6 6 7 8 9 9 10 10 11 12 12 12 12 12 13 13 13 13
14 15 16 14 13 13 12 15 11 11 12 11 11 11 11 10 10 9 8 8 8 8 9 7 6 6 5 5 5 5 6 6 6 7 8 9 10 10 11 11 12 13 13 12 12 13 13 13 13
16 18 18 16 13 13 13 15 12 12 13 12 11 11 10 9 9 9 9 9 8 8 9 9 7 7 6 6 6 6 7 7 7 8 9 9 10 10 11 11 12 13 13 13 13 14 13 14 14
18 19 18 17 14 15 15 15 13 11 13 12 11 11 10 10 9 8 9 9 9 9 8 9 9 8 7 7 7 8 8 8 8 9 9 10 10 11 11 12 13 14 14 14 14 14 14 14 14
17 18 18 16 14 15 15 15 14 13 13 12 11 11 11 11 9 9 9 9 10 10 10 10 10 9 9 9 10 10 10 9 10 9 9 10 10 11 12 12 13 13 14 14 14 14 15 15 15
16 17 17 15 14 16 16 16 13 13 12 12 11 11 11 11 10 10 10 10 10 10 10 10 10 10 9 9 9 9 9 10 10 10 10 10 11 11 12 13 13 14 14 15 14 15 15 15 15
17 18 17 17 16 16 17 17 16 14 14 12 12 11 11 11 11 11 11 11 11 11 11 11 11 11 10 10 10 13 12 12 12 12 11 11 11 12 12 13 13 14 14 15 15 14 14 15 16
17 15 16 17 18 20 17 20 16 13 13 13 13 12 13 12 12 11 11 11 11 11 11 11 11 11 11 11 11 11 11 12 12 11 11 12 12 12 12 13 13 14 14 14 15 15 14 15 16
16 15 16 17 18 19 19 20 18 16 16 14 12 12 12 12 12 12 12 11 12 11 12 12 11 11 11 11 11 11 11 11 13 12 12 12 13 12 13 13 14 14 14 14 15 15 15 15 15
15 16 17 18 19 22 19 19 19 17 15 15 13 13 12 12 12 12 12 12 12 12 13 13 13 13 12 12 11 12 11 12 13 13 13 14 14 14 14 14 14 14 14 15 15 15 15 15 15
15 18 21 22 22 21 19 20 17 15 14 13 13 12 13 13 13 13 12 12 12 13 13 14 14 13 13 12 12 12 12 12 13 13 13 14 14 14 15 14 15 15 15 15 15 15 15 15 15
16 16 18 22 23 18 20 20 17 14 13 14 13 13 13 13 13 13 13 13 13 13 13 14 15 14 14 13 13 13 13 12 13 13 13 13 13 14 13 15 14 15 15 15 15 15 15 15 15
17 17 15 17 21 22 18 16 14 15 14 14 14 13 14 14 13 14 13 13 14 14 13 14 14 14 14 14 14 14 14 13 13 14 14 13 13 13 14 15 15 15 15 16 15 15 16 16 16
14 14 17 17 21 22 18 19 17 14 12 14 15 14 14 13 14 14 14 14 13 13 13 13 13 13 13 14 14 14 14 13 13 14 15 14 14 14 14 15 15 15 15 15 15 15 16 16 16
16 16 15 15 16 20 21 18 13 14 16 16 16 15 15 15 15 14 14 13 13 12 12 13 13 13 13 13 13 14 14 14 14 15 14 14 14 14 15 15 15 15 15 15 16 16 16 16 16
13 13 13 16 16 15 15 15 10 15 15 16 16 16 15 15 15 15 14 14 14 13 13 13 13 13 13 13 14 14 14 14 15 15 14 14 14 15 15 15 15 15 15 16 16 16 17 17 17